Location: Unspecified
(0.0000°N, 0.0000°E)
Time: 09:08:55
(UTC+00:00)

Courier 1B - All Passes

Search period start: 31 October 2014 00:00
Search period end: 10 November 2014 00:00
Orbit: 963 x 1209 km, 28.3° (Epoch: 29 October)

Date Brightness Start Highest point End Pass type
(mag) Time Alt. Az. Time Alt. Az. Time Alt. Az.
31 Oct - 00:00:00 10° SSE 23:59:45 11° SSE 00:00:39 10° SSE night (unlit)
31 Oct - 01:48:05 10° SW 01:54:01 38° SSE 02:00:02 10° E visible
31 Oct - 03:41:40 10° WSW 03:48:03 58° NNW 03:54:44 10° NE visible
31 Oct - 05:38:20 10° WNW 05:42:38 18° NNW 05:47:05 10° NNE daylight
31 Oct - 11:28:50 10° N 11:32:02 13° NNE 11:35:16 10° NE daylight
31 Oct - 13:20:12 10° NW 13:27:20 38° NNE 13:34:22 10° E daylight
31 Oct - 15:14:02 10° WNW 15:21:51 72° SSW 15:29:23 10° SE daylight
31 Oct - 17:10:45 10° WSW 17:16:26 22° SSW 17:21:56 10° SSE daylight
01 Nov - 00:54:53 10° SSW 01:00:14 27° SSE 01:05:36 10° E night (unlit)
01 Nov - 02:47:51 10° WSW 02:54:20 82° NNW 03:01:01 10° ENE visible
01 Nov - 04:43:33 10° WNW 04:48:38 23° NNW 04:53:55 10° NNE visible
01 Nov - 12:26:46 10° NNW 12:33:15 28° NNE 12:39:44 10° E daylight
01 Nov - 14:20:00 10° WNW 14:27:54 86° NNE 14:35:37 10° ESE daylight
01 Nov - 16:15:46 10° W 16:22:24 31° SSW 16:28:49 10° SSE daylight
02 Nov - 00:01:51 10° SSW 00:06:23 20° SSE 00:10:53 10° ESE night (unlit)
02 Nov - 01:54:12 10° SW 02:00:39 71° SSE 02:07:11 10° ENE visible
02 Nov - 03:49:06 10° W 03:54:46 31° NNW 04:00:37 10° NNE visible
02 Nov - 11:33:33 10° NNW 11:39:07 21° NNE 11:44:45 10° ENE daylight
02 Nov - 13:26:09 10° NW 13:33:55 64° NNE 13:41:37 10° ESE daylight
02 Nov - 15:21:07 10° W 15:28:24 42° SSW 15:35:29 10° SE daylight
02 Nov - 17:19:59 10° SW 17:23:25 13° SSW 17:26:48 10° S daylight
02 Nov - 23:09:04 10° S 23:12:26 14° SSE 23:15:45 10° SE night (unlit)
03 Nov - 01:00:41 10° SW 01:06:57 50° SSE 01:13:12 10° ENE night (unlit)
03 Nov - 02:54:53 10° W 03:00:58 43° NNW 03:07:13 10° NE visible
03 Nov - 04:52:49 10° NW 04:55:41 13° NNW 04:58:35 10° N visible
03 Nov - 10:40:37 10° NNW 10:44:55 16° NNE 10:49:17 10° ENE daylight
03 Nov - 12:32:30 10° NW 12:39:55 48° NNE 12:47:24 10° ESE daylight
03 Nov - 14:26:44 10° WNW 14:34:24 57° SSW 14:41:58 10° SE daylight
03 Nov - 16:24:11 10° WSW 16:29:14 18° SSW 16:34:11 10° SSE daylight
03 Nov - 22:17:09 10° S 22:18:22 11° SSE 22:19:34 10° SSE night (unlit)
04 Nov - 00:07:17 10° SW 00:13:13 35° SSE 00:19:02 10° E night (unlit)
04 Nov - 02:00:53 10° WSW 02:07:15 61° NNW 02:13:41 10° NE visible
04 Nov - 03:57:31 10° WNW 04:01:39 17° NNW 04:05:52 10° NNE visible
04 Nov - 09:48:22 10° N 09:50:40 11° NNE 09:52:59 10° NE daylight
04 Nov - 11:39:01 10° NW 11:45:53 35° NNE 11:52:54 10° E daylight
04 Nov - 13:32:35 10° WNW 13:40:25 76° SSW 13:48:15 10° SE daylight
04 Nov - 15:28:57 10° WSW 15:35:06 25° SSW 15:41:08 10° SSE daylight
04 Nov - 23:14:00 10° SSW 23:19:24 26° SSE 23:24:39 10° E night (unlit)
05 Nov - 01:07:02 10° WSW 01:13:34 87° NNW 01:20:03 10° ENE night (unlit)
05 Nov - 03:02:43 10° WNW 03:07:44 24° NNW 03:12:51 10° NNE visible
05 Nov - 10:45:45 10° NNW 10:51:50 26° NNE 10:58:06 10° E daylight
05 Nov - 12:38:40 10° WNW 12:46:26 81° NNE 12:54:20 10° ESE daylight
05 Nov - 14:34:07 10° W 14:41:01 33° SSW 14:47:51 10° SSE daylight
05 Nov - 16:34:22 10° SW 16:36:22 11° SSW 16:38:21 10° S daylight
05 Nov - 22:20:52 10° SSW 22:25:29 19° SSE 22:29:59 10° ESE night (unlit)
06 Nov - 00:13:19 10° SW 00:19:53 67° SSE 00:26:17 10° ENE night (unlit)
06 Nov - 02:08:14 10° W 02:13:56 32° NNW 02:19:39 10° NNE night (unlit)
06 Nov - 09:52:43 10° NNW 09:57:45 19° NNE 10:02:55 10° ENE daylight
06 Nov - 11:44:58 10° NW 11:52:28 60° NNE 12:00:12 10° ESE daylight
06 Nov - 13:39:36 10° W 13:46:58 45° SSW 13:54:22 10° SE daylight
06 Nov - 15:37:54 10° SW 15:42:04 15° SSW 15:46:12 10° S daylight
06 Nov - 21:27:55 10° S 21:31:28 14° SSE 21:34:55 10° SE visible
06 Nov - 23:19:43 10° SW 23:26:10 47° SSE 23:32:21 10° ENE night (unlit)
07 Nov - 01:13:58 10° WSW 01:20:11 46° NNW 01:26:20 10° NE night (unlit)
07 Nov - 03:11:54 10° NW 03:14:44 13° NNW 03:17:34 10° N visible
07 Nov - 09:00:05 10° N 09:03:36 14° NNE 09:07:12 10° NE daylight
07 Nov - 10:51:27 10° NW 10:58:30 44° NNE 11:05:51 10° E daylight
07 Nov - 12:45:22 10° WNW 12:52:57 60° SSW 13:00:42 10° SE daylight
07 Nov - 14:42:23 10° WSW 14:47:50 20° SSW 14:53:16 10° SSE daylight
07 Nov - 20:35:35 10° S 20:37:19 11° SSE 20:39:00 10° SSE visible
07 Nov - 22:26:14 10° SW 22:32:22 34° SSE 22:38:13 10° E night (unlit)
08 Nov - 00:19:54 10° WSW 00:26:29 66° NNW 00:32:53 10° NE night (unlit)
08 Nov - 02:16:33 10° WNW 02:20:46 18° NNW 02:24:59 10° NNE night (unlit)
08 Nov - 09:58:07 10° NNW 10:04:32 32° NNE 10:11:13 10° E daylight
08 Nov - 11:51:22 10° WNW 11:58:58 81° SSW 12:06:52 10° ESE daylight
08 Nov - 13:47:22 10° W 13:53:40 27° SSW 14:00:02 10° SSE daylight
08 Nov - 21:32:50 10° SSW 21:38:29 25° SSE 21:43:51 10° E visible
08 Nov - 23:25:59 10° WSW 23:32:47 88° SSE 23:39:18 10° ENE night (unlit)
09 Nov - 01:21:41 10° W 01:26:54 25° NNW 01:32:03 10° NNE night (unlit)
09 Nov - 09:05:01 10° NNW 09:10:32 23° NNE 09:16:18 10° ENE daylight
09 Nov - 10:57:36 10° NW 11:05:02 76° NNE 11:12:50 10° ESE daylight
09 Nov - 12:52:42 10° W 12:59:34 35° SSW 13:06:36 10° SE daylight
09 Nov - 14:52:05 10° SW 14:54:58 12° SSW 14:57:51 10° S daylight
09 Nov - 20:39:34 10° SSW 20:44:29 19° SSE 20:49:11 10° ESE visible
09 Nov - 22:32:11 10° SW 22:39:03 64° SSE 22:45:33 10° ENE night (unlit)
